This is the latest recevied weather packets stored in our database for station/object N9XRG. If no packets are shown the sender has not sent any weather packets the latest 10 day(s).
| Time | Temp. | Humidity | Pressure | Rain* | Wind** | Luminosity | Snow |
|---|---|---|---|---|---|---|---|
| 1777642793 | 3.89° C | 91% | 1013.9 hPa | 0 mm | - | 122 W/m² | - |
| 1777642490 | 3.89° C | 92% | 1013.8 hPa | 0 mm | - | 111 W/m² | - |
| 1777642186 | 3.89° C | 93% | 1013.8 hPa | 0 mm | - | 137 W/m² | - |
| 1777641884 | 3.89° C | 93% | 1013.9 hPa | 0 mm | - | 116 W/m² | - |
| 1777641584 | 3.89° C | 93% | 1013.8 hPa | 0 mm | - | 92 W/m² | - |
| 1777641283 | 3.89° C | 94% | 1013.9 hPa | 0 mm | - | 126 W/m² | - |
| 1777640980 | 3.89° C | 94% | 1013.7 hPa | 0 mm | - | 148 W/m² | - |
| 1777640677 | 3.89° C | 94% | 1013.7 hPa | 0 mm | - | 96 W/m² | - |
| 1777640373 | 3.89° C | 94% | 1013.3 hPa | 0.51 mm | - | 99 W/m² | - |
| 1777640070 | 3.89° C | 94% | 1013.6 hPa | 0.51 mm | - | 78 W/m² | - |
| 1777639767 | 3.89° C | 95% | 1013.5 hPa | 0.51 mm | - | 81 W/m² | - |
| 1777639465 | 3.89° C | 95% | 1013.7 hPa | 1.27 mm | - | 95 W/m² | - |
| 1777639161 | 3.89° C | 95% | 1013.5 hPa | 1.27 mm | - | 73 W/m² | - |
| 1777638858 | 3.89° C | 95% | 1013.6 hPa | 1.78 mm | - | 48 W/m² | - |
| 1777638553 | 3.89° C | 94% | 1013.8 hPa | 1.78 mm | - | 33 W/m² | - |
| 1777638250 | 3.33° C | 94% | 1013.3 hPa | 1.27 mm | - | 23 W/m² | - |
| 1777637946 | 3.33° C | 94% | 1013.5 hPa | 1.27 mm | - | 27 W/m² | - |
| 1777637642 | 3.33° C | 94% | 1013.6 hPa | 1.78 mm | - | 29 W/m² | - |
| 1777637340 | 3.33° C | 94% | 1013.4 hPa | 2.29 mm | - | 20 W/m² | - |
| 1777637037 | 3.89° C | 94% | 1013.5 hPa | 2.29 mm | - | 17 W/m² | - |
| 1777636732 | 3.89° C | 94% | 1013.3 hPa | 0.51 mm | - | 8 W/m² | - |
| 1777636428 | 3.89° C | 94% | 1013.2 hPa | 0 mm | - | 9 W/m² | - |
| 1777636124 | 3.89° C | 94% | 1013.1 hPa | 0 mm | - | 5 W/m² | - |
| 1777635820 | 3.89° C | 94% | 1012.9 hPa | 0 mm | - | 5 W/m² | - |
| 1777635516 | 3.89° C | 94% | 1012.6 hPa | 0 mm | - | 8 W/m² | - |
* Rain latest hour (hover to see other rain measurements)
** Current wind speed in m/s (hover to see current wind gust speed)